Regional Weather Roundup
Issued by NWS Albany, NY

Home | Current Version | Previous Version | Text Only | Print | Product List | Glossary On
Versions: 1 2 3 4 5 6 7 8 9 10 11 12 13 14 15 16 17 18 19 20 21 22 23 24 25 26
000
ASUS41 KALY 270810
RWRALY

NEW YORK STATE HOURLY WEATHER ROUNDUP
NATIONAL WEATHER SERVICE ALBANY NY
400 AM EDT FRI MAY 27 2016

NOTE: "FAIR" INDICATES FEW OR NO CLOUDS BELOW 12,000 FEET WITH NO
SIGNIFICANT WEATHER AND/OR NO OBSTRUCTIONS TO VISIBILITY.

NYZ032-033-038>043-046>054-057>066-NYZ062>081-082-084-270900-
EAST


CITY           SKY/WX    TMP DP  RH WIND       PRES   REMARKS
ALBANY         CLOUDY    73  50  44 S6        30.03R
GLENS FALLS    CLOUDY    66  60  81 CALM      30.02S
POUGHKEEPSIE   PTCLDY    67  56  67 CALM      30.03S
NEWBURGH       CLEAR     70  54  56 S7        30.06
MONTGOMERY     MOCLDY    66  60  81 CALM      30.05R
WHITE PLAINS   CLEAR     64  57  78 CALM      30.07R
ISLIP          PTCLDY    63  59  87 S3        30.07S
NEW YORK CITY  PTCLDY    68  63  84 E6        30.05S
CENTRAL PARK   CLEAR     74  56  53 VRB3      30.09R
$$

NYZ005>009-017-018-044>046-055-056-270900-
CENTRAL


CITY           SKY/WX    TMP DP  RH WIND       PRES   REMARKS
FULTON         PTCLDY    63  60  90 CALM      29.98S
SYRACUSE       MOCLDY    66  60  81 SE5       29.97F
ROME           MOCLDY    63  60  90 SE5       30.00F
ELMIRA         PTCLDY    59  56  89 SE3       30.03F
BINGHAMTON     CLEAR     67  57  70 S3        30.07R
MONTICELLO     CLOUDY    64  57  77 CALM      30.10S
$$

NYZ026>034-041>043-087-270900-
NORTH


CITY           SKY/WX    TMP DP  RH WIND       PRES   REMARKS
WATERTOWN      CLEAR     57  55  93 CALM      29.95F FOG
FORT DRUM      NOT AVBL
MASSENA        CLEAR     57  51  80 CALM      29.95F
SARANAC LAKE   PTCLDY    53  50  89 CALM      30.02F
PLATTSBURGH    CLOUDY    61  56  83 CALM      29.98S
$$

NYZ001>004-010>016-019>021-085-270900-
WEST


CITY           SKY/WX    TMP DP  RH WIND       PRES   REMARKS
NIAGARA FALLS  CLEAR     70  62  76 S8        29.96
BUFFALO        PTCLDY    69  62  78 S8        29.97F
DUNKIRK        CLEAR     70  63  78 S12       29.98S
JAMESTOWN      PTCLDY    64  61  88 S7        30.04F
WELLSVILLE     CLOUDY    66  60  81 SW7       30.08F
ROCHESTER      CLEAR     66  64  93 SW8       29.98F
PENN YAN       MOCLDY    66  60  81 SW7       30.02F
$$

             KEY
       WCI = WIND CHILL INDEX
       VSB = VISIBILITY
       HX  = HEAT INDEX
$$




USA.gov is the U.S. government's official web portal to all federal, state and local government web resources and services.